Regional Weather Roundup
Issued by NWS

Home | Current Version | Previous Version | Text Only | Print | Product List | Glossary On
Versions: 1 2 3 4 5 6 7 8 9 10 11 12 13 14 15 16 17 18 19 20 21 22 23 24 25 26 27 28 29 30 31 32 33 34 35 36 37 38 39 40 41 42 43 44 45 46 47 48 49 50
000
ASUS43 KTOP 221059
RWRKS

WEATHER ROUNDUP FOR KANSAS
NATIONAL WEATHER SERVICE GOODLAND KS
600 AM CDT FRI AUG 22 2014

NOTE:  "FAIR" INDICATES FEW OR NO CLOUDS BELOW 12,000 FEET WITH NO
SIGNIFICANT WEATHER AND/OR OBSTRUCTIONS TO VISIBILITY.

KSZ001>006-013>018-027>032-041>047-221200-
NORTHWEST KANSAS

CITY           SKY/WX    TMP DP  RH WIND       PRES   REMARKS
GOODLAND       MOCLDY    65  61  87 NW3       30.01R
HAYS           MOCLDY    79  64  61 S6        29.89R
HILL CITY      CLEAR     68  65  90 CALM      29.91R
RUSSELL        MOCLDY    78  67  68 S7        29.87R
$$

KSZ061>065-074>080-084>089-221200-
SOUTHWEST KANSAS

CITY           SKY/WX    TMP DP  RH WIND       PRES   REMARKS
DODGE CITY     MOCLDY    75  64  68 S7        29.92F
ELKHART          N/A     71  58  63 W10         N/A
GARDEN CITY    PTCLDY    70  63  78 SE7       29.93S
GREAT BEND     MOCLDY    81  66  61 S10       29.89R
LIBERAL        PTCLDY    75  61  60 S13       29.96R
$$

KSZ066>073-081>083-090>101-221200-
SOUTHEAST KANSAS

CITY           SKY/WX    TMP DP  RH WIND       PRES   REMARKS
CHANUTE        CLEAR     76  69  79 S10       29.95R
COFFEYVILLE    PTCLDY    79  70  74 S12       29.95R
HUTCHINSON     CLEAR     78  68  71 S8        29.90R
NEWTON         CLEAR     79  63  57 S13       29.95R
PARSONS        CLEAR     76  69  79 S5        29.96S
WICHITA INTL   PTCLDY    77  67  71 S12       29.91R
WICHITA JABRA  CLEAR     77  67  71 S9        29.92R
WINFIELD       CLEAR     78  66  66 S12       29.94R
$$

KSZ007>012-019>026-033>040-048>060-102>105-221200-
NORTHEAST KANSAS

CITY           SKY/WX    TMP DP  RH WIND       PRES   REMARKS
CONCORDIA      CLEAR     77  72  84 S8        29.85S
EMPORIA        CLEAR     75  70  84 S12       29.92S
LAWRENCE       PTCLDY    79  71  76 SE5       29.90F
MANHATTAN      MOCLDY    81  70  69 S8        29.86S
OLATHE IND     PTCLDY    76  71  85 S10       29.92F
OLATHE EXE     PTCLDY    76  71  85 S7        29.91F
SALINA         PTCLDY    81  70  69 S10       29.86F THUNDER
TOPEKA BILLARD MOCLDY    81  72  74 S7        29.89F
TOPEKA FORBES  MOCLDY    79  70  74 S9        29.89F
$$



USA.gov is the U.S. government's official web portal to all federal, state and local government web resources and services.